FW7504 Weather Reports


time (UTC)temp
F
wind
direction
speed
knots
gust
knots
rain 1hr
in
rain 24hr
in
rain mn
in
humidity
%
barometer
mb
20260507021057 64 0 0.0 0.0 0.00 1.28 1.28 95 1013.8
20260507020559 64 0 0.0 0.0 0.00 1.28 1.28 95 1013.9
20260507020113 64 0 0.0 1.7 0.00 1.28 1.28 95 1013.9
20260507015557 64 0 0.0 1.7 0.00 1.28 1.28 95 1013.7
20260507015058 64 0 0.0 0.0 0.00 1.28 1.28 95 1013.9
20260507014601 64 0 0.0 0.0 0.00 1.28 1.28 95 1013.8
20260507014057 64 0 0.0 0.0 0.00 1.28 1.28 95 1014.1
20260507013557 64 0 0.0 0.0 0.00 1.28 1.28 95 1014.2
20260507013057 64 0 0.0 0.0 0.00 1.28 1.28 95 1014.1
20260507012559 64 0 0.0 0.0 0.00 1.28 1.28 95 1014.2
20260507012059 64 0 0.0 0.0 0.00 1.28 1.28 95 1014.2
20260507011600 64 0 0.0 0.0 0.00 1.28 1.28 95 1014.1
20260507011052 64 0 0.0 0.0 0.01 1.28 1.28 95 1013.8
20260507010553 64 0 0.0 0.0 0.01 1.28 1.28 95 1013.6
20260507010109 64 0 0.0 0.0 0.01 1.28 1.28 95 1013.5
20260507005553 64 0 0.0 0.9 0.01 1.28 1.28 95 1013.5
20260507005052 64 0 0.0 0.9 0.01 1.28 1.28 95 1013.5
20260507004553 64 0 0.0 1.7 0.01 1.28 1.28 95 1013.6
20260507004053 64 0 0.0 1.7 0.02 1.28 1.28 95 1013.7
20260507003553 64 0 0.0 1.7 0.03 1.28 1.28 95 1013.6
20260507003058 64 0 0.0 0.0 0.03 1.28 1.28 95 1013.7
20260507002552 64 0 0.0 0.0 0.04 1.28 1.28 95 1013.6
20260507002053 64 0 0.0 1.7 0.04 1.28 1.28 95 1013.4
20260507001603 64 0 0.0 1.7 0.13 1.28 1.28 95 1013.2
20260507001052 64 0 0.0 1.7 0.19 1.27 1.27 95 1013.0
20260507000555 64 0 0.0 0.0 0.22 1.27 1.27 95 1014.2
20260507000052 64 0 0.0 0.0 0.26 1.27 1.27 95 1014.5
20260506235553 64 0 0.0 0.0 0.31 1.27 1.27 95 1014.2
20260506235052 64 0 0.0 0.0 0.32 1.27 1.27 95 1014.0
20260506234558 64 0 0.0 0.9 0.32 1.27 1.27 95 1013.9
20260506234052 64 0 0.0 0.9 0.31 1.26 1.26 95 1013.7
20260506233555 64 0 0.0 1.7 0.30 1.25 1.25 95 1013.8
20260506233059 64 0 0.0 1.7 0.31 1.25 1.25 95 1014.2
20260506232552 64 360 0.0 0.9 0.32 1.24 1.24 94 1014.0
20260506232053 64 0 0.0 0.9 0.33 1.23 1.23 94 1013.8
20260506231612 64 0 0.0 0.9 0.24 1.14 1.14 95 1014.3
20260506231053 64 0 0.0 0.9 0.18 1.08 1.08 95 1014.2
20260506230552 65 0 0.0 1.7 0.15 1.04 1.04 95 1013.5
20260506230110 65 0 0.0 1.7 0.12 1.00 1.00 95 1013.3
20260506225553 65 360 0.0 1.7 0.08 0.96 0.96 94 1014.0
20260506225052 65 360 0.0 0.9 0.07 0.95 0.95 95 1013.1
20260506224555 65 0 0.0 0.0 0.07 0.95 0.95 95 1013.3
20260506224052 65 0 0.0 0.0 0.07 0.95 0.95 95 1013.2
20260506223552 65 0 0.0 1.7 0.07 0.95 0.95 95 1013.5
20260506223100 65 0 0.0 1.7 0.06 0.94 0.94 94 1013.4
20260506222552 65 0 0.0 0.0 0.04 0.92 0.92 94 1013.6
20260506222054 65 0 0.0 1.7 0.02 0.90 0.90 94 1013.3
20260506221624 65 0 0.0 3.5 0.02 0.90 0.90 94 1013.2
20260506221052 65 0 0.0 3.5 0.02 0.90 0.90 94 1013.1
20260506220553 65 360 0.9 3.5 0.03 0.90 0.90 94 1012.5
20260506220115 65 0 0.0 1.7 0.01 0.88 0.88 94 1013.3
20260506215552 65 0 0.0 1.7 0.01 0.88 0.88 94 1013.0
20260506215052 65 0 0.0 1.7 0.01 0.88 0.88 94 1012.8
20260506214553 65 0 0.0 1.7 0.01 0.88 0.88 94 1012.8
20260506214053 65 0 0.0 1.7 0.01 0.88 0.88 94 1013.1
20260506213552 65 0 0.0 2.6 0.01 0.88 0.88 94 1012.9
20260506213110 65 360 0.0 2.6 0.01 0.88 0.88 94 1012.3
20260506212552 65 360 0.0 2.6 0.02 0.88 0.88 94 1012.5
20260506212052 65 0 0.0 0.0 0.05 0.88 0.88 94 1012.7
20260506211601 65 0 0.0 0.0 0.06 0.88 0.88 94 1012.8
20260506211052 65 0 0.0 0.0 0.08 0.88 0.88 94 1013.2
20260506210552 65 0 0.0 0.0 0.07 0.87 0.87 94 1013.4
20260506210105 65 0 0.0 0.0 0.07 0.87 0.87 94 1013.2
20260506205552 65 0 0.0 0.0 0.07 0.87 0.87 94 1013.3
20260506205052 65 0 0.0 0.0 0.07 0.87 0.87 94 1013.3
20260506204606 65 0 0.0 0.0 0.07 0.87 0.87 94 1013.5
20260506204052 66 0 0.0 1.7 0.07 0.87 0.87 94 1013.4
20260506203552 66 0 0.0 2.6 0.07 0.87 0.87 94 1013.5
20260506203056 66 0 0.0 2.6 0.07 0.87 0.87 94 1013.6
20260506202554 66 0 0.0 2.6 0.07 0.86 0.86 94 1013.6
20260506202054 66 360 0.9 4.3 0.04 0.83 0.83 94 1013.9
20260506201553 66 0 0.9 4.3 0.03 0.82 0.82 93 1013.8
20260506201053 66 360 0.9 5.2 0.02 0.80 0.80 93 1013.9
20260506200552 67 360 1.7 5.2 0.02 0.80 0.80 93 1013.7
20260506200052 67 360 0.9 3.5 0.03 0.80 0.80 93 1013.5
20260506195557 68 360 1.7 3.5 0.04 0.80 0.80 94 1013.4
20260506195052 68 360 0.0 1.7 0.05 0.80 0.80 95 1013.9
20260506194556 68 0 0.0 2.6 0.07 0.80 0.80 95 1013.6
20260506194053 68 0 0.9 2.6 0.09 0.80 0.80 95 1013.7
20260506193552 67 0 0.0 2.6 0.17 0.80 0.80 94 1013.8
20260506193055 67 360 0.9 2.6 0.25 0.80 0.80 94 1014.0
20260506192552 67 360 0.0 1.7 0.25 0.79 0.79 94 1014.5
20260506192052 67 0 0.0 3.5 0.27 0.79 0.79 94 1014.0
20260506191556 67 0 0.0 3.5 0.28 0.79 0.79 94 1013.6
20260506191053 67 0 0.9 3.5 0.28 0.78 0.78 94 1013.7
20260506190552 67 0 0.0 1.7 0.29 0.78 0.78 93 1013.3
20260506190057 67 360 0.0 1.7 0.28 0.77 0.77 93 1013.6
20260506185552 67 0 0.0 1.7 0.27 0.76 0.76 93 1013.7
20260506185053 68 0 0.0 1.7 0.26 0.75 0.75 93 1013.9
20260506184620 68 0 0.0 1.7 0.24 0.73 0.73 93 1014.0
20260506184053 68 360 0.0 0.9 0.21 0.70 0.70 93 1013.9
20260506183556 68 0 0.0 0.0 0.13 0.62 0.62 92 1015.0
20260506183057 68 0 0.0 0.0 0.06 0.55 0.55 92 1014.9
20260506182552 68 0 0.0 0.9 0.05 0.54 0.54 92 1014.9
20260506182051 68 0 0.0 0.9 0.03 0.52 0.52 92 1014.7
20260506181559 68 0 0.0 0.9 0.02 0.51 0.51 92 1014.9
20260506181053 68 0 0.0 1.7 0.01 0.50 0.50 91 1014.8
20260506180553 68 0 0.0 2.6 0.00 0.49 0.49 91 1014.9
20260506180058 68 0 0.0 4.3 0.00 0.49 0.49 91 1015.0
20260506175552 68 0 0.0 4.3 0.00 0.49 0.49 91 1014.7
20260506175050 68 360 0.9 5.2 0.00 0.49 0.49 91 1014.8
20260506174554 68 360 0.9 5.2 0.00 0.49 0.49 91 1014.6
20260506174114 68 360 1.7 5.2 0.00 0.49 0.49 91 1014.6
20260506173552 68 360 0.9 3.5 0.00 0.49 0.49 91 1014.6
20260506173053 68 360 0.9 3.5 0.00 0.49 0.49 91 1014.5
20260506172552 68 0 0.9 4.3 0.00 0.49 0.49 91 1014.6
20260506172052 68 360 0.9 4.3 0.00 0.49 0.49 91 1014.5
20260506171606 69 360 1.7 4.3 0.00 0.49 0.49 91 1014.5
20260506171054 69 360 0.9 3.5 0.00 0.49 0.49 91 1014.4
20260506170551 69 360 0.9 3.5 0.00 0.49 0.49 92 1014.3
20260506170058 69 360 0.9 5.2 0.00 0.49 0.49 92 1014.3
20260506165549 68 360 2.6 7.0 0.00 0.49 0.49 92 1014.3
20260506165053 68 360 2.6 7.0 0.00 0.49 0.49 92 1014.4
20260506164553 68 360 1.7 4.3 0.00 0.49 0.49 93 1014.2
20260506164053 68 360 1.7 4.3 0.00 0.49 0.49 93 1014.1
20260506163552 68 360 1.7 4.3 0.00 0.49 0.49 93 1014.1
20260506163052 68 360 1.7 4.3 0.00 0.49 0.49 94 1013.8
20260506162551 68 360 1.7 4.3 0.00 0.49 0.49 94 1014.0
20260506162055 68 360 1.7 3.5 0.00 0.49 0.49 94 1014.0
20260506161553 68 360 0.9 3.5 0.00 0.49 0.49 94 1014.1
20260506161052 68 360 0.9 4.3 0.00 0.49 0.49 94 1014.2
20260506160552 67 0 0.9 4.3 0.00 0.49 0.49 94 1014.1
20260506160108 67 360 0.9 4.3 0.00 0.49 0.49 94 1014.1
20260506155551 67 0 1.7 4.3 0.00 0.49 0.49 94 1014.2
20260506155052 67 360 1.7 3.5 0.01 0.49 0.49 94 1014.4
20260506154553 67 360 0.9 3.5 0.02 0.49 0.49 94 1014.5
20260506154055 67 360 0.0 2.6 0.02 0.49 0.49 95 1014.6
20260506153553 66 0 0.0 3.5 0.12 0.49 0.49 94 1014.6
20260506153053 66 0 0.0 3.5 0.20 0.49 0.49 95 1014.6
20260506152551 66 0 0.0 1.7 0.28 0.49 0.49 94 1014.5
20260506152049 65 0 0.0 1.7 0.35 0.49 0.49 94 1014.3
20260506151557 65 0 0.0 1.7 0.37 0.49 0.49 94 1014.6
20260506151051 65 0 0.0 1.7 0.39 0.49 0.49 94 1014.7
20260506150552 65 0 0.0 2.6 0.39 0.49 0.49 93 1014.8
20260506150055 65 0 0.0 3.5 0.40 0.49 0.49 93 1014.7
20260506145552 64 0 0.9 3.5 0.42 0.49 0.49 93 1014.1
20260506145052 64 0 0.0 1.7 0.42 0.48 0.48 93 1014.6
20260506144601 64 0 0.0 1.7 0.41 0.47 0.47 92 1015.4
20260506144052 64 0 0.0 2.6 0.40 0.46 0.46 92 1015.6
20260506143552 64 0 0.9 3.5 0.32 0.37 0.37 92 1016.2
20260506143054 65 0 0.0 5.2 0.23 0.28 0.28 92 1016.4
20260506142551 65 360 0.9 5.2 0.17 0.21 0.21 92 1016.3
20260506142051 65 360 2.6 5.2 0.12 0.14 0.14 92 1016.4
20260506141554 65 0 0.0 1.7 0.11 0.12 0.12 91 1015.8
20260506141052 64 0 0.0 0.9 0.09 0.10 0.10 91 1015.6
20260506140552 65 0 0.0 0.9 0.09 0.10 0.10 91 1015.5
20260506140053 65 0 0.0 0.9 0.09 0.09 0.09 91 1015.2
20260506135552 65 0 0.0 1.7 0.07 0.07 0.07 91 1015.2
20260506135053 65 0 0.0 1.7 0.06 0.06 0.06 91 1015.1
20260506134553 65 0 0.0 1.7 0.06 0.06 0.06 90 1014.9
20260506134050 65 360 0.0 2.6 0.06 0.06 0.06 90 1015.0
20260506133551 65 0 0.0 2.6 0.05 0.05 0.05 89 1014.8
20260506133053 65 360 0.0 2.6 0.05 0.05 0.05 89 1014.8
20260506132554 66 0 0.0 2.6 0.04 0.04 0.04 88 1014.8
20260506132055 66 0 0.9 2.6 0.02 0.02 0.02 87 1014.7
20260506131612 66 0 0.9 2.6 0.01 0.01 0.01 86 1014.6
20260506131049 66 360 0.0 2.6 0.01 0.01 0.01 85 1014.4
20260506130549 67 0 0.0 3.5 0.01 0.01 0.01 85 1014.2
20260506130057 67 360 1.7 3.5 0.00 0.00 0.00 84 1014.2
20260506125551 67 360 0.9 3.5 0.00 0.00 0.00 83 1014.3
20260506125049 67 360 1.7 3.5 0.00 0.00 0.00 82 1014.0
20260506124553 67 360 0.9 2.6 0.00 0.00 0.00 82 1014.0
20260506124052 67 360 0.0 3.5 0.00 0.00 0.00 82 1013.8
20260506123551 67 360 0.9 3.5 0.00 0.00 0.00 82 1013.8
20260506123055 67 360 0.0 2.6 0.00 0.00 0.00 82 1013.7
20260506122552 67 0 0.0 1.7 0.00 0.00 0.00 82 1013.7
20260506122051 67 360 0.0 1.7 0.00 0.00 0.00 82 1013.6
20260506121557 67 360 0.0 2.6 0.00 0.00 0.00 82 1013.4
20260506121052 67 360 0.0 2.6 0.00 0.00 0.00 82 1013.6
20260506120552 67 0 0.0 1.7 0.00 0.00 0.00 82 1013.3
20260506120055 67 0 0.0 1.7 0.00 0.00 0.00 82 1013.3
20260506115550 67 0 0.0 2.6 0.00 0.00 0.00 82 1013.3
20260506115052 67 0 0.0 2.6 0.00 0.00 0.00 82 1013.3
20260506114555 67 0 0.0 1.7 0.00 0.00 0.00 82 1013.3
20260506114050 67 0 0.0 2.6 0.00 0.00 0.00 81 1013.3
20260506113551 67 0 0.0 3.5 0.00 0.00 0.00 81 1013.1
20260506113051 67 360 0.0 3.5 0.00 0.00 0.00 81 1013.1
20260506112554 67 360 0.9 3.5 0.00 0.00 0.00 81 1013.4
20260506112054 67 360 0.0 2.6 0.00 0.00 0.00 80 1012.6
20260506111552 67 0 0.9 2.6 0.00 0.00 0.00 80 1012.9
20260506111051 67 360 0.0 2.6 0.00 0.00 0.00 80 1013.1
20260506110553 67 360 0.0 2.6 0.00 0.00 0.00 80 1013.0
20260506110054 67 0 0.9 2.6 0.00 0.00 0.00 80 1012.8
20260506105552 67 0 0.0 3.5 0.00 0.00 0.00 80 1012.5
20260506105053 67 0 0.9 3.5 0.00 0.00 0.00 80 1012.6
20260506104601 67 360 0.0 2.6 0.00 0.00 0.00 80 1012.7
20260506104052 67 360 0.0 2.6 0.00 0.00 0.00 80 1012.7
20260506103551 67 0 0.0 2.6 0.00 0.00 0.00 80 1012.5
20260506103059 67 0 0.0 2.6 0.00 0.00 0.00 79 1012.3
20260506102555 67 360 0.0 2.6 0.00 0.00 0.00 79 1011.9
20260506102052 67 360 0.9 2.6 0.00 0.00 0.00 79 1012.0
20260506101600 67 360 0.0 2.6 0.00 0.00 0.00 78 1011.9
20260506101048 68 360 0.0 2.6 0.00 0.00 0.00 78 1012.3
20260506100552 68 0 0.9 2.6 0.00 0.00 0.00 77 1012.1
20260506100114 68 360 0.9 2.6 0.00 0.00 0.00 76 1012.3
20260506095553 68 360 0.9 2.6 0.00 0.00 0.00 76 1012.3
20260506095052 68 360 0.9 2.6 0.00 0.00 0.00 76 1012.4
20260506094557 68 360 0.0 3.5 0.00 0.00 0.00 76 1012.3
20260506094049 68 0 0.9 3.5 0.00 0.00 0.00 76 1012.2
20260506093553 68 0 0.9 4.3 0.00 0.00 0.00 75 1012.3
20260506093103 68 360 0.9 4.3 0.00 0.00 0.00 75 1012.4
20260506092553 68 360 0.0 1.7 0.00 0.00 0.00 75 1012.3
20260506092052 68 360 0.0 2.6 0.00 0.00 0.00 75 1012.3
20260506091601 68 0 0.0 3.5 0.00 0.00 0.00 75 1012.1
20260506091052 68 360 0.9 3.5 0.00 0.00 0.00 74 1012.1
20260506090554 68 0 0.9 4.3 0.00 0.00 0.00 74 1012.1
20260506090054 68 360 0.9 4.3 0.00 0.00 0.00 74 1012.1
20260506085551 68 360 0.9 3.5 0.00 0.00 0.00 74 1012.0
20260506085051 68 360 1.7 3.5 0.00 0.00 0.00 74 1012.0
20260506084604 68 360 0.9 3.5 0.00 0.00 0.00 74 1011.9
20260506084051 68 360 0.9 3.5 0.00 0.00 0.00 73 1011.9
20260506083552 68 360 0.9 2.6 0.00 0.00 0.00 73 1011.7
20260506083057 68 360 0.9 2.6 0.00 0.00 0.00 73 1011.7
20260506082552 68 0 0.9 3.5 0.00 0.00 0.00 73 1011.7
20260506082052 68 360 0.9 3.5 0.00 0.00 0.00 73 1011.8
20260506081554 68 360 0.9 3.5 0.00 0.00 0.00 73 1011.7
20260506081053 68 360 0.9 3.5 0.00 0.00 0.00 72 1012.0
20260506080549 69 0 0.9 3.5 0.00 0.00 0.00 73 1011.7
20260506073054 69 0 0.0 2.6 0.00 0.00 0.00 71 1011.6
20260506072551 69 360 0.9 2.6 0.00 0.00 0.00 70 1011.8
20260506072047 68 360 0.0 2.6 0.00 0.00 0.00 70 1011.7
20260506071558 68 360 0.0 2.6 0.00 0.00 0.00 70 1011.6
20260506071048 69 0 0.0 2.6 0.00 0.00 0.00 70 1011.6
20260506070556 69 360 0.0 2.6 0.00 0.00 0.00 69 1011.6
20260506062050 69 0 0.0 2.6 0.00 0.00 0.00 66 1012.2
20260506061553 69 360 0.0 2.6 0.00 0.00 0.00 66 1012.4
20260506061051 69 360 0.0 1.7 0.00 0.00 0.00 66 1012.4
20260506060553 69 360 0.0 1.7 0.00 0.00 0.00 66 1012.5
20260506051052 69 0 0.0 0.9 0.00 0.00 0.00 64 1012.8
20260506050552 69 0 0.0 1.7 0.00 0.00 0.00 64 1012.7
20260506045051 69 0 0.0 1.7 0.00 0.00 0.00 64 1013.0
20260506044556 69 360 0.0 1.7 0.00 0.00 0.00 63 1012.9
20260506044051 69 360 0.0 1.7 0.00 0.00 0.00 63 1012.8
20260506043551 69 0 0.0 1.7 0.00 0.00 0.00 63 1012.7
20260506043052 69 0 0.0 1.7 0.00 0.00 0.00 63 1012.8
20260506042551 69 360 0.0 1.7 0.00 0.00 0.00 63 1012.9
20260506042054 69 0 0.0 1.7 0.00 0.00 0.00 63 1012.8
20260506041602 69 0 0.0 1.7 0.00 0.00 0.00 63 1012.9
20260506041052 69 360 0.0 1.7 0.00 0.00 0.00 62 1012.9
20260506040551 69 0 0.0 1.7 0.00 0.00 0.00 62 1012.8
20260506040108 69 360 0.0 1.7 0.00 0.00 0.00 62 1012.8
20260506035551 70 360 0.0 1.7 0.00 0.00 0.00 61 1012.8
20260506035052 70 0 0.0 0.9 0.00 0.00 0.00 61 1013.0
20260506034553 70 0 0.0 0.9 0.00 0.00 0.00 61 1013.1
20260506034052 70 0 0.0 0.0 0.00 0.00 0.00 61 1013.0
20260506033551 70 0 0.0 0.0 0.00 0.00 0.00 61 1013.2
20260506033055 70 0 0.0 1.7 0.00 0.00 0.00 61 1013.3
20260506032551 70 0 0.0 1.7 0.00 0.00 0.00 61 1013.2
20260506032051 70 0 0.0 1.7 0.00 0.00 0.00 60 1013.2
20260506031553 70 0 0.0 1.7 0.00 0.00 0.00 60 1013.1
20260506031051 70 0 0.0 1.7 0.00 0.00 0.00 60 1012.9
20260506030551 70 360 0.0 0.9 0.00 0.00 0.00 60 1012.9
20260506030116 70 0 0.0 0.9 0.00 0.00 0.00 60 1012.9
20260506025551 70 0 0.0 1.7 0.00 0.00 0.00 59 1013.1
20260506025051 71 0 0.0 1.7 0.00 0.00 0.00 59 1013.3
20260506024558 71 0 0.0 2.6 0.00 0.00 0.00 59 1013.4
20260506024051 71 0 0.0 2.6 0.00 0.00 0.00 59 1013.4
20260506023550 71 360 0.9 2.6 0.00 0.00 0.00 59 1013.3
20260506023057 71 360 0.9 3.5 0.00 0.00 0.00 59 1013.2
20260506022551 71 360 0.9 3.5 0.00 0.00 0.00 59 1013.1
20260506022048 71 360 0.0 2.6 0.00 0.00 0.00 59 1012.8
20260506021609 71 360 0.9 4.3 0.00 0.00 0.00 58 1012.8